Location: Unspecified
(48.7670°N, 0.0000°E)
Time: 12:02:21
(UTC+00:00)

Altair - Pass Details

Date: 28 June 2019
Orbit: 1501 x 1683 km, 47.2° (Epoch: 22 July)

Event Time Altitude Azimuth Distance (km) Brightness Sun altitude
Rises 00:36:36 0° 290° (WNW) 4,815 10.3 -17.5°
Reaches altitude 10° 00:39:55 10° 283° (WNW) 3,852 9.6 -17.5°
Maximum altitude 00:48:46 39° 219° (SW) 2,304 8.0 -17.2°
Enters shadow 00:56:46 14° 158° (SSE) 3,648 9.0 -16.9°
Drops below altitude 10° 00:57:49 10° 155° (SSE) 3,932 - -16.9°
Sets 01:01:15 0° 148° (SSE) 4,923 - -16.8°
